Regional Weather Roundup
Issued by NWS Sioux Falls, SD

Home | Current Version | Previous Version | Text Only | Print | Product List | Glossary Off
Versions: 1 2 3 4 5 6 7 8 9 10 11 12 13 14 15 16 17 18 19 20 21 22 23 24 25 26 27 28 29 30 31 32 33 34 35 36 37 38 39 40 41 42 43 44 45 46 47 48 49 50

000
ASUS43 KFSD 151502
RWRFSD

WEATHER ROUNDUP FOR SE SOUTH DAKOTA/SW MINNESOTA/NW IOWA
NATIONAL WEATHER SERVICE SIOUX FALLS SD
1000 AM CDT TUE APR 15 2014

NOTE: "FAIR" INDICATES FEW OR NO CLOUDS BELOW 12,000 FEET WITH NO
SIGNIFICANT WEATHER AND OR OBSTRUCTIONS TO VISIBILITY.


SDZ038>040-050-052>070-151600-
SOUTHEAST SOUTH DAKOTA

CITY           SKY/WX    TMP DP  RH WIND       PRES   REMARKS
CHAMBERLAIN      N/A     34  19  54 SE18G26   29.99F WCI  23
HURON          SUNNY     29  18  63 S13G21    30.08F WCI  19
MITCHELL       SUNNY     30  22  72 SE16      30.10F WCI  19
SIOUX FALLS    SUNNY     28  13  53 SE7       30.14F WCI  21
WINNER         FAIR      39  17  41 S18G26    29.93F
YANKTON        SUNNY     30  19  64 SE13      30.14F WCI  20
$$

MNZ071-072-080-081-089-090-097-098-151600-
SOUTHWEST MINNESOTA

CITY           SKY/WX    TMP DP  RH WIND       PRES   REMARKS
FAIRMONT       SUNNY     25   3  39 NW12      30.19S WCI  14
JACKSON        SUNNY     27   9  46 W8        30.16S WCI  18
LUVERNE        SUNNY     30  12  47 S5        30.15F WCI  25
MARSHALL       SUNNY     25  10  54 CALM      30.16F
MONTEVIDEO     SUNNY     27  16  63 N6        30.19F WCI  20
PIPESTONE      SUNNY     25  12  58 S5        30.12S WCI  19
REDWOOD FALLS  SUNNY     24   6  46 NW8       30.18F WCI  15
TRACY          SUNNY     25  12  57 CALM      30.16F
WINDOM         SUNNY     25   9  50 W8        30.16S WCI  16
WORTHINGTON    SUNNY     27   9  46 CALM      30.16F
$$

IAZ001>003-012>014-020>022-031-032-NEZ013-014-SDZ071-151600-
NORTHWEST IOWA

CITY           SKY/WX    TMP DP  RH WIND       PRES   REMARKS
DENISON        SUNNY     28  18  64 E5        30.18S WCI  23
ESTHERVILLE    SUNNY     24  11  57 NW9       30.17S WCI  14
SIOUX CITY     SUNNY     30  20  66 SE8       30.19F WCI  22
SPENCER        SUNNY     27  13  55 NE3       30.17F
STORM LAKE     SUNNY     27  10  50 NE7       30.17F WCI  19
$$

ABBREVIATIONS USED IN REMARKS
   TC - TEMPERATURE IN CELSIUS
  WCI - WIND CHILL INDEX
   HX - HEAT INDEX
  VSB - VISIBILITY




USA.gov is the U.S. government's official web portal to all federal, state and local government web resources and services.